7 * 24
多渠道服务支持
ENMAP(Environmental Mapping and Analysis Program)是德国研制的首颗高光谱地球观测卫星,于2022年4月1日由SpaceX猎鹰9号火箭在美国佛罗里达州成功发射,运行于653公里高度的太阳同步轨道。 卫星搭载高光谱成像载荷,覆盖可见光至短波红外共242个波段,空间分辨率30米,幅宽30公里,可获取植被、土壤、水质等多类环境信息,服务于农业、林业、地质、水资源等领域的研究与应用,助力监测全球生态系统动态变化。
德国
(DE)
| 数据来源 | 国际轨道数据 |
| 星历时间: | 2026-09-14T07:12:53+0800 8小时前 查看轨道信息 |
| 半长轴: | 7023.34km |
| 偏心率: | 0.0001633 |
| 轨道倾角: | 97.978° |
| 近地点辐角 | 89.814° |
| 升交点赤经 | 337.942° |
| 平近点角 | 270.325° |
| 近地点: | 644.056km |
| 远地点: | 646.35km |
| 周期: | 97.628分钟 |
| 每日圈数: | 14.749838 |